www.pogodaiklimat.ru

Погода и климат >> Архив погоды >> Канада >> Thunder Bay


ПОГОДА в Thunder Bay

  • Прогноз погоды в Thunder Bay
  • Монитор погоды в Thunder Bay
  • Климат города

АРХИВ ПОГОДЫ в Thunder Bay

Время (UTC), дата Ветер
(напр.,м/с)
 
Видим.   Явления Облачность Т
(С)
Тd
(С)
f
(%)
Тe
(С)
Тes
(С)
Комфортность P
(гПа)
Po
(гПа)
Тmin
(С)
Tmax
(С)
R
(мм)
R24
(мм)
S
(см)
03 8.08 СВ 2 16 км ясно +13.8 +13.3 97 +13 +13 1012.3 988.3
06 8.08 С 1 16 км ясно +11.1 +11.1 100 +12 +12 1011.8 987.9 +10.4 +22.9
09 8.08 ЮЗ 1 16 км ясно +9.8 +9.8 100 +9 +9 1010.6 986.7
12 8.08 ЮЗ 1 16 км ясно +11.1 +11.1 100 +11 +12 1010.1 986.2 +8.7 +22.9
15 8.08 Ю 2 14 км слаб. дождь 10/0
[]
+16.7 +15.7 94 +17 +22 1009.1 985.2
18 8.08 СВ 2 16 км {осадки} 10/0
[]
+19.4 +17.6 89 +22 +30 комфорт 1008.3 984.4 +8.7 +19.7 0.8
21 8.08 ЮВ 2 16 км {осадки} 9/0
[]
+22.4 +19.3 83 +28 +34 душно 1007.2 983.4
00 9.08 ЮЗ 2 16 км {осадки} 9/0
[]
+19.9 +18.8 93 +24 +24 комфорт 1007.6 983.7 +8.7 +25.9 2
03 9.08 СЗ 2 14 км {осадки} ясно +16.7 +16.7 100 +17 +17 1008.6 984.8
06 9.08 ЮЗ 1 500 м туман ясно +15.0 +15.0 100 +15 +15 1010.0 986.1 +8.7 +25.9 0
09 9.08 З 1 4000 м дымка 5/0
[]
+13.7 +13.7 100 +14 +14 1010.8 987.0
12 9.08 СЗ 1 16 км {осадки} 5/0
[]
+13.5 +13.5 100 +14 +14 1012.2 988.3 +11.1 +25.9 0.3
15 9.08 З 1 16 км 5/0 2000 м
[]
+21.6 +17.9 79 +26 +34 душно 1012.9 989.1
18 9.08 В 4 16 км 5/0
[]
+25.6 +19.6 69 +31 +39 очень
душно
1012.7 988.9 +11.1 +25.8
21 9.08 Ю 5 16 км {осадки} 5/5 1500 м
[]
+26.2 +18.2 61 +31 +33 очень
душно
1012.4 988.6
00 10.08 В 4 16 км ясно +21.5 +17.2 77 +26 +26 душно 1013.0 989.1 +11.1 +27.1 7
03 10.08 СЗ 1 16 км ясно +16.2 +16.0 99 +17 +17 1014.6 990.7
06 10.08 З 1 12 км ясно +13.9 +13.9 100 +15 +15 1014.9 991.0 +11.1 +27.1 19
09 10.08 З 1 9000 м дымка ясно +12.0 +12.0 100 +12 +12 1014.6 990.7
12 10.08 СЗ 2 16 км ясно +13.9 +13.9 100 +14 +14 1015.7 991.7 +10.9 +27.1
15 10.08 ЮЗ 2 16 км ясно +23.4 +16.8 66 +28 +38 душно 1014.9 991.0
18 10.08 З 4 16 км ясно +28.6 +16.7 49 +32 +44 душно 1013.8 990.0 +10.9 +28.6
21 10.08 З 5 16 км 3/3 1500 м
[]
+29.2 +16.6 47 +33 +36 очень
душно
1011.9 988.1
00 11.08 З 4 16 км ясно +26.4 +17.7 59 +31 +31 душно 1011.2 987.4 +10.9 +30.0
03 11.08 З 3 16 км ясно +22.0 +17.2 74 +26 +26 душно 1011.5 987.8
06 11.08 СВ 3 16 км зарница 10/10 1500 м
[]
+18.3 +15.2 82 +19 +19 1014.1 990.4 +10.9 +30.0 22
09 11.08 З 3 16 км {осадки} ясно +15.6 +15.1 97 +15 +15 1013.3 989.6
12 11.08 СЗ 1 14 км ясно +15.0 +15.0 100 +15 +16 1015.4 991.6 +13.3 +30.0 1
15 11.08 В 1 16 км ясно +23.9 +18.2 70 +28 +39 душно 1016.6 992.8
18 11.08 ЮВ 4 16 км ясно +27.5 +17.4 54 +32 +43 очень
душно
1016.9 993.1 +13.3 +27.7
21 11.08 В 5 16 км ясно +27.8 +17.0 52 +32 +36 душно 1016.9 993.1
00 12.08 Ю 3 16 км ясно +25.0 +17.5 63 +29 +30 душно 1016.9 993.0 +13.3 +28.4
03 12.08 СВ 1 16 км ясно +18.6 +17.5 93 +21 +21 комфорт 1018.0 994.1
06 12.08 З 1 14 км ясно +15.1 +15.1 100 +16 +16 1018.5 994.6 +13.3 +28.4
09 12.08 СЗ 2 14 км ясно +13.3 +13.3 100 +13 +13 1019.1 995.2
12 12.08 З 2 14 км ясно +14.2 +14.2 100 +14 +15 1020.0 996.0 +12.5 +28.4
15 12.08 ЮЗ 1 16 км ясно +23.3 +18.0 72 +29 +40 душно 1019.7 995.8
18 12.08 В 3 16 км ясно +29.0 +20.5 60 +36 +48 очень
душно
1018.5 994.6 +12.5 +29.0
21 12.08 Ю 5 16 км ясно +30.4 +18.8 50 +36 +40 очень
душно
1017.1 993.3
00 13.08 Ю 4 16 км ясно +27.0 +18.7 60 +32 +32 очень
душно
1016.5 992.6 +12.5 +31.1
03 13.08 СВ 3 16 км ясно +17.4 +16.4 94 +18 +18 1017.6 993.7
06 13.08 СВ 2 9000 м дымка ясно +16.8 +16.5 98 +17 +17 1017.1 993.3 +12.5 +31.1 23
09 13.08 З 1 1200 м дымка ясно +14.5 +14.5 100 +15 +15 1016.7 992.9
12 13.08 З 1 <100 м туман н/о +14.8 +14.8 100 +15 +15 1015.8 992.0 +12.3 +31.1
15 13.08 В 2 16 км ясно +24.4 +19.6 75 +30 +40 очень
душно
1014.8 991.0
18 13.08 Ю 5 16 км ясно +29.1 +21.7 64 +37 +46 очень
душно
1012.1 988.4 +12.3 +29.2
21 13.08 Ю 8 16 км ясно +29.2 +21.0 61 +36 +38 очень
душно
1010.3 986.6
00 14.08 ЮЗ 4 16 км ясно +27.5 +20.0 64 +34 +34 очень
душно
1009.6 985.9 +12.3 +29.7
03 14.08 ЮЗ 4 16 км ясно +24.4 +19.3 73 +29 +29 душно 1009.4 985.8
06 14.08 З 3 16 км ясно +20.9 +18.7 87 +26 +26 душно 1009.0 985.5 +12.3 +29.7 231
09 14.08 СЗ 4 16 км ясно +20.8 +18.6 87 +25 +25 комфорт 1010.0 986.5
12 14.08 З 3 16 км 5/0
[]
+18.1 +16.1 88 +19 +19 1011.8 988.1 +17.4 +29.7
15 14.08 СЗ 4 16 км 10/0
[]
+21.4 +14.4 64 +24 +27 комфорт 1012.2 988.5
18 14.08 СЗ 4 16 км 9/9 1000 м
[]
+22.7 +14.7 61 +26 +28 жарко 1012.9 989.2 +17.4 +23.1
21 14.08 С 2 16 км 9/9 1000 м
[]
+25.0 +14.2 51 +27 +28 жарко 1012.3 988.6
00 15.08 В 4 16 км 9/9 1500 м
[]
+21.8 +15.4 67 +25 +25 комфорт 1013.3 989.5 +17.4 +25.5

 

Местоположение метеостанции Thunder Bay (Канада): широта 48.37 долгота -89.32 высота над уровнем моря 199 м.

В архиве по умолчанию представлена погода в Thunder Bay за последнюю неделю. Архивные данные за месяц целиком и за предыдущие месяцы, начиная с января 2011 года, Вы можете получить, выбрав интересующий диапазон дат из раскрывающегося списка и нажав кнопку "Ввод!".


*Определитесь, кто Вы:
робот инопланетянин человек

Внимание! Время в таблицах - всемирное. Для получения местного времени необходимо прибавить поправку, которая в Thunder Bay равна -8 ч.

Смотрите также архив погоды в соседних городах и на ближайших метеорологических станциях:

Погода в Thunder Bay (Канада) (1 км)
Погода в Welcome Island (Канада) (16 км)
Погода в Trowbridge (Канада) (35 км)
Погода в Upsala (Канада) (111 км)
Погода в Cameron Falls (Канада) (113 км)
Погода в Katatota Island (Канада) (167 км)
Погода в Atikokan (Канада) (176 км)
Погода в Armstrong (Канада) (216 км)
Погода в Pukaskwa (Канада) (224 км)
Погода в Geraldton (Канада) (234 км)

Пояснения к столбцам:

Ветер - указаны скорость ветра в м/с - средняя за 10 мин, порывы в срок и между сроками (в фигурных скобках) и направление, откуда дует ветер: С - северный, СВ - северо-восточный, В - восточный, ЮВ - юго-восточный, Ю - южный, ЮЗ - юго-западный, З - западный, СЗ - северо-западный.
Видимость - горизонтальная дальность видимости в метрах или километрах. При видимости от 1 до 10 км при отсутствии осадков обычно наблюдается дымка, при ухудшении видимости до 1 км и менее - туман. В сухую погоду видимость может ухудшаться дымом, пылью или мглою.
Явления - указаны атмосферные явления, наблюдавшиеся в срок или в последний час перед сроком; фигурными скобками обозначены явления, наблюдавшиеся между сроками (за 1-3 часа до срока); квадратными скобками обозначены град или гололедные отложения с указанием их диаметра в мм.
Облачность - указаны через наклонную черту общая и нижняя облачность в баллах и высота нижней границы облаков в метрах; квадратными скобками обозначены формы облаков: Ci - перистые, Cs - перисто-слоистые, Cc - перисто-кучевые, Ac - высококучевые, As - высокослоистые, Sc - слоисто-кучевые, Ns - слоисто-дождевые, Cu - кучевые, Cb - кучево-дождевые. Подробнее классификацию облаков см. в Атласе облаков (PDF).
T - Температура воздуха - температура, измеренная на высоте 2 м над землей.
Td - Температура точки росы - температура, при понижении до которой содержащийся в воздухе водяной пар достигнет насыщения.
f - Относительная влажность воздуха - влажноcть воздуха, измеренная на высоте 2 м над землей.
Te - Эффективная температура - температура, которую ощущает одетый по сезону человек в тени. Характеристика душности погоды. При расчете учитывается влияние влажности воздуха и скорости ветра на теплоощущения человека.
Tes - Эффективная температура на солнце - температура, которую ощущает человек, с поправкой на солнечный нагрев. Характеристика знойности погоды. Зависит от высоты солнца над горизонтом, облачности и скорости ветра. Ночью, в пасмурную погоду, а также при ветре 12 м/с и более поправка равна нулю.
P - Атмосферное давление - приведенное к уровню моря атмосферное давление.
Po - Атмосферное давление - измеренное на уровне метеостанции атмосферное давление.
Tmin - Минимальная температура - минимум температуры воздуха на высоте 2 м над землей.
Tmax - Максимальная температура - максимум температуры воздуха на высоте 2 м над землей.
R - Количество осадков - Количество выпавших осадков за период времени, мм. При наведении курсора мыши на число - период времени, за который выпало указанное количество осадков.
R24 - Количество осадков - Количество выпавших осадков за 24 часа, мм.
S - Снежный покров - Высота снежного покрова, см. При наведении курсора мыши на число - состояние снежного покрова и степень покрытия местности в баллах.